• In Österreich
  • Länderverzeichnis
  • Für 7 Tage
  • Wassertemperatur
  • Satellitenkarten
  • Wetterkarte
  • News
  • Widgets
  • user-avatar
    Anmelden

    Stündliche Wetter Nachiczewan

    Heute, 16 August, Donnerstag

    Zeit Temperatur Niederschläge Wind Luftdruck Luftfeuchtigkeit
    00:00 +26°C° 0 mm 2 m/S 688 mmHg 45%
    01:00 +25°C° 0 mm 2 m/S 688 mmHg 46%
    02:00 +25°C° 0 mm 2 m/S 688 mmHg 48%
    03:00 +24°C° 0 mm 1 m/S 688 mmHg 49%
    04:00 +24°C° 0 mm 1 m/S 688 mmHg 49%
    05:00 +24°C° 0 mm 1 m/S 688 mmHg 49%
    06:00 +24°C° 0 mm 1 m/S 688 mmHg 48%
    07:00 +26°C° 0 mm 1 m/S 688 mmHg 43%
    08:00 +27°C° 0 mm 1 m/S 688 mmHg 38%
    09:00 +29°C° 0 mm 1 m/S 688 mmHg 33%
    10:00 +31°C° 0 mm 2 m/S 688 mmHg 30%
    11:00 +32°C° 0 mm 2 m/S 687 mmHg 26%
    12:00 +35°C° 0 mm 2 m/S 687 mmHg 23%
    13:00 +35°C° 0 mm 3 m/S 687 mmHg 21%
    14:00 +36°C° 0 mm 3 m/S 687 mmHg 20%
    15:00 +37°C° 0 mm 3 m/S 687 mmHg 18%
    16:00 +37°C° 0 mm 3 m/S 687 mmHg 19%
    17:00 +36°C° 0 mm 4 m/S 686 mmHg 20%
    18:00 +36°C° 0 mm 4 m/S 686 mmHg 21%
    19:00 +34°C° 0 mm 3 m/S 686 mmHg 26%
    20:00 +33°C° 0 mm 3 m/S 687 mmHg 31%
    21:00 +30°C° 0 mm 2 m/S 687 mmHg 35%
    22:00 +29°C° 0 mm 2 m/S 687 mmHg 37%
    23:00 +29°C° 0 mm 2 m/S 687 mmHg 40%

    Morgen, 17 August, Freitag

    Zeit Temperatur Niederschläge Wind Luftdruck Luftfeuchtigkeit
    00:00 +28°C° 0 mm 2 m/S 687 mmHg 42%
    01:00 +28°C° 0 mm 2 m/S 686 mmHg 43%
    02:00 +27°C° 0 mm 2 m/S 686 mmHg 44%
    03:00 +27°C° 0 mm 1 m/S 686 mmHg 45%
    04:00 +27°C° 0 mm 1 m/S 686 mmHg 44%
    05:00 +27°C° 0 mm 1 m/S 686 mmHg 44%
    06:00 +27°C° 0 mm 1 m/S 686 mmHg 44%
    07:00 +28°C° 0 mm 1 m/S 686 mmHg 39%
    08:00 +30°C° 0 mm 1 m/S 686 mmHg 34%
    09:00 +32°C° 0 mm 1 m/S 686 mmHg 29%
    10:00 +33°C° 0 mm 1 m/S 686 mmHg 26%
    11:00 +35°C° 0 mm 1 m/S 686 mmHg 23%
    12:00 +37°C° 0 mm 2 m/S 686 mmHg 20%
    13:00 +38°C° 0 mm 2 m/S 685 mmHg 19%
    14:00 +39°C° 0 mm 2 m/S 685 mmHg 18%
    15:00 +39°C° 0 mm 3 m/S 685 mmHg 16%
    16:00 +39°C° 0 mm 3 m/S 684 mmHg 17%
    17:00 +38°C° 0 mm 3 m/S 684 mmHg 18%
    18:00 +38°C° 0 mm 4 m/S 684 mmHg 19%
    19:00 +36°C° 0 mm 3 m/S 684 mmHg 23%
    20:00 +35°C° 0 mm 3 m/S 684 mmHg 27%
    21:00 +32°C° 0 mm 2 m/S 684 mmHg 31%
    22:00 +31°C° 0 mm 2 m/S 684 mmHg 33%
    23:00 +30°C° 0 mm 2 m/S 684 mmHg 36%

    übermorgen, 18 August, Samstag

    Zeit Temperatur Niederschläge Wind Luftdruck Luftfeuchtigkeit
    00:00 +30°C° 0 mm 2 m/S 684 mmHg 38%
    01:00 +29°C° 0 mm 2 m/S 684 mmHg 39%
    02:00 +28°C° 0 mm 2 m/S 684 mmHg 40%
    03:00 +28°C° 0 mm 2 m/S 683 mmHg 42%
    04:00 +28°C° 0 mm 2 m/S 683 mmHg 42%
    05:00 +28°C° 0 mm 2 m/S 683 mmHg 42%
    06:00 +27°C° 0 mm 1 m/S 684 mmHg 42%
    07:00 +29°C° 0 mm 1 m/S 684 mmHg 38%
    08:00 +31°C° 0 mm 1 m/S 684 mmHg 33%
    09:00 +33°C° 0 mm 1 m/S 684 mmHg 28%
    10:00 +35°C° 0 mm 2 m/S 684 mmHg 25%
    11:00 +36°C° 0 mm 2 m/S 683 mmHg 22%
    12:00 +38°C° 0 mm 2 m/S 683 mmHg 20%
    13:00 +38°C° 0 mm 3 m/S 683 mmHg 19%
    14:00 +39°C° 0 mm 3 m/S 682 mmHg 17%
    15:00 +40°C° 0 mm 3 m/S 682 mmHg 16%
    16:00 +40°C° 0 mm 4 m/S 682 mmHg 17%
    17:00 +38°C° 0 mm 4 m/S 682 mmHg 19%
    18:00 +38°C° 0 mm 4 m/S 681 mmHg 20%
    19:00 +36°C° 0 mm 4 m/S 682 mmHg 24%
    20:00 +34°C° 0 mm 4 m/S 682 mmHg 28%
    21:00 +33°C° 0 mm 3 m/S 682 mmHg 32%
    22:00 +31°C° 0 mm 3 m/S 682 mmHg 35%
    23:00 +30°C° 0 mm 3 m/S 683 mmHg 37%

    19 August, Sonntag

    Zeit Temperatur Niederschläge Wind Luftdruck Luftfeuchtigkeit
    00:00 +29°C° 0 mm 2 m/S 683 mmHg 40%
    01:00 +28°C° 0 mm 2 m/S 683 mmHg 42%
    02:00 +28°C° 0 mm 2 m/S 683 mmHg 45%
    03:00 +27°C° 0 mm 2 m/S 683 mmHg 47%
    04:00 +27°C° 0 mm 2 m/S 683 mmHg 48%
    05:00 +27°C° 0 mm 2 m/S 683 mmHg 48%
    06:00 +26°C° 0 mm 2 m/S 683 mmHg 49%
    07:00 +28°C° 0 mm 2 m/S 683 mmHg 44%
    08:00 +29°C° 0 mm 2 m/S 684 mmHg 39%
    09:00 +31°C° 0 mm 2 m/S 684 mmHg 34%
    10:00 +32°C° 0 mm 2 m/S 684 mmHg 31%
    11:00 +34°C° 0 mm 3 m/S 683 mmHg 28%
    12:00 +35°C° 0 mm 3 m/S 683 mmHg 24%
    13:00 +36°C° 0 mm 3 m/S 683 mmHg 23%
    14:00 +37°C° 0 mm 4 m/S 683 mmHg 22%
    15:00 +37°C° 0 mm 5 m/S 683 mmHg 21%
    16:00 +37°C° 0 mm 5 m/S 683 mmHg 23%
    17:00 +36°C° 0 mm 5 m/S 683 mmHg 25%
    18:00 +35°C° 0 mm 6 m/S 683 mmHg 27%
    19:00 +33°C° 0 mm 5 m/S 683 mmHg 31%
    20:00 +32°C° 0 mm 5 m/S 684 mmHg 35%
    21:00 +29°C° 0 mm 4 m/S 684 mmHg 39%
    22:00 +29°C° 0 mm 4 m/S 684 mmHg 41%
    23:00 +28°C° 0 mm 3 m/S 684 mmHg 43%

    20 August, Montag

    Zeit Temperatur Niederschläge Wind Luftdruck Luftfeuchtigkeit
    00:00 +27°C° 0 mm 3 m/S 684 mmHg 45%
    01:00 +26°C° 0 mm 3 m/S 684 mmHg 46%
    02:00 +26°C° 0 mm 2 m/S 684 mmHg 47%
    03:00 +25°C° 0 mm 2 m/S 684 mmHg 48%
    04:00 +25°C° 0 mm 2 m/S 685 mmHg 49%
    05:00 +25°C° 0 mm 2 m/S 685 mmHg 49%
    06:00 +25°C° 0 mm 2 m/S 685 mmHg 49%
    07:00 +27°C° 0 mm 2 m/S 685 mmHg 44%
    08:00 +28°C° 0 mm 2 m/S 686 mmHg 39%
    09:00 +30°C° 0 mm 2 m/S 686 mmHg 34%
    10:00 +31°C° 0 mm 3 m/S 686 mmHg 31%
    11:00 +34°C° 0 mm 3 m/S 686 mmHg 28%
    12:00 +35°C° 0 mm 4 m/S 686 mmHg 25%
    13:00 +36°C° 0 mm 4 m/S 685 mmHg 23%
    14:00 +37°C° 0 mm 5 m/S 685 mmHg 22%
    15:00 +39°C° 0 mm 5 m/S 685 mmHg 21%
    16:00 +37°C° 0 mm 5 m/S 685 mmHg 23%
    17:00 +36°C° 0 mm 5 m/S 685 mmHg 25%
    18:00 +35°C° 0 mm 5 m/S 685 mmHg 27%
    19:00 +34°C° 0 mm 5 m/S 685 mmHg 32%
    20:00 +32°C° 0 mm 4 m/S 686 mmHg 37%
    21:00 +29°C° 0 mm 3 m/S 686 mmHg 42%
    22:00 +28°C° 0 mm 3 m/S 686 mmHg 44%
    23:00 +28°C° 0 mm 3 m/S 686 mmHg 46%

    21 August, Dienstag

    Zeit Temperatur Niederschläge Wind Luftdruck Luftfeuchtigkeit
    00:00 +27°C° 0 mm 2 m/S 686 mmHg 48%
    01:00 +26°C° 0 mm 2 m/S 686 mmHg 49%
    02:00 +26°C° 0 mm 2 m/S 686 mmHg 50%
    03:00 +25°C° 0 mm 2 m/S 686 mmHg 51%
    04:00 +25°C° 0 mm 2 m/S 686 mmHg 51%
    05:00 +25°C° 0 mm 2 m/S 687 mmHg 51%
    06:00 +25°C° 0 mm 1 m/S 687 mmHg 51%
    07:00 +27°C° 0 mm 1 m/S 687 mmHg 45%
    08:00 +28°C° 0 mm 1 m/S 687 mmHg 40%
    09:00 +30°C° 0 mm 1 m/S 687 mmHg 34%
    10:00 +31°C° 0 mm 2 m/S 687 mmHg 31%
    11:00 +34°C° 0 mm 2 m/S 687 mmHg 27%
    12:00 +35°C° 0 mm 2 m/S 687 mmHg 24%
    13:00 +36°C° 0 mm 3 m/S 686 mmHg 22%
    14:00 +37°C° 0 mm 3 m/S 686 mmHg 20%
    15:00 +38°C° 0 mm 4 m/S 686 mmHg 19%
    16:00 +37°C° 0 mm 4 m/S 686 mmHg 20%
    17:00 +36°C° 0 mm 4 m/S 686 mmHg 21%
    18:00 +35°C° 0 mm 5 m/S 686 mmHg 23%
    19:00 +34°C° 0 mm 4 m/S 686 mmHg 26%
    20:00 +32°C° 0 mm 4 m/S 687 mmHg 30%
    21:00 +29°C° 0 mm 3 m/S 687 mmHg 33%
    22:00 +29°C° 0 mm 3 m/S 687 mmHg 35%
    23:00 +28°C° 0 mm 3 m/S 687 mmHg 37%
    Mehr zeigen